Location: Bonaustraße
(48.4603°N, 11.9280°E)
Time: 20:18:48
(UTC+02:00)

Tiangong - Pass Details

Date: 30 September 2021
Orbit: 382 x 385 km, 41.5° (Epoch: 18 October)

Event Time Altitude Azimuth Distance (km) Brightness Sun altitude
Exits shadow 05:18:06 17° 163° (SSE) 1,072 3.3 -19.2°
Drops below altitude 10° 05:20:08 10° 123° (ESE) 1,394 4.4 -18.8°
Sets 05:22:41 0° 101° (E) 2,248 6.0 -18.4°
